CW1053 Monroe Twp NJ US current weather conditions

sailwx.info

Wind from 248 at 1 knots gusting 5

Air temperature 4.4° C
Dewpoint -2.4° C

Last reported at 2020-Jan-28 22:00 UTC.
Time now 2020-Jan-28 22:25 UTC

Location: N 40°22' W 074°23'.
View on Google Maps.

See reports from other nearby stations

  
Tides and Currents Weather Stations Pressure Air Temp Water Temp Dewpoint Dewpoint Depression Visibility Wind Speed Wind Dir Waves Ship Positions
date/time (UTC)wind fromknots sea level pressurealtimeterstation pressurevisibilityair tempwater tempwave heightnotes
2020-Jan-28 22:00 248 1 gusting 5 4.4
2020-Jan-28 21:45 220 4.4
2020-Jan-28 21:30 233 4.4
2020-Jan-28 21:15 215 4.4
2020-Jan-28 21:00 270 0 gusting 4 4.4
2020-Jan-28 20:45 332 4 gusting 4 4.4
2020-Jan-28 20:30 247 4.4
2020-Jan-28 20:15 167 5.0
2020-Jan-28 20:00 302 5.0
2020-Jan-28 19:45 181 5.6
2020-Jan-28 19:30 292 5.6
2020-Jan-28 19:15 309 0 gusting 6 5.6
2020-Jan-28 19:00 161 6.1
2020-Jan-28 18:45 182 6.7
2020-Jan-28 18:30 291 6.1
2020-Jan-28 18:15 213 6.7
2020-Jan-28 18:00 158 7.2
2020-Jan-28 17:45 217 1 gusting 10 7.2
2020-Jan-28 17:30 268 0 gusting 5 7.8
2020-Jan-28 17:15 246 0 gusting 9 7.2
2020-Jan-28 17:00 253 4 gusting 6 7.2
2020-Jan-28 16:45 188 3 gusting 4 7.2
2020-Jan-28 16:30 258 2 gusting 4 6.7
2020-Jan-28 16:15 263 1 gusting 6 6.7
2020-Jan-28 16:00 319 1 gusting 5 6.1
2020-Jan-28 15:45 213 4 gusting 9 6.1
2020-Jan-28 15:30 263 0 gusting 5 5.6
2020-Jan-28 15:15 296 0 gusting 6 5.0
2020-Jan-28 15:00 233 0 gusting 4 5.0
2020-Jan-28 14:45 226 4.4
2020-Jan-28 14:30 192 4.4
2020-Jan-28 14:15 182 0 gusting 11 3.9
2020-Jan-28 14:00 222 3.3
2020-Jan-28 13:45 216 2.8
2020-Jan-28 13:30 288 2.8
2020-Jan-28 13:15 243 2.2
2020-Jan-28 13:00 291 1.1
2020-Jan-28 12:45 264 1.1
2020-Jan-28 12:30 278 1.1
2020-Jan-28 12:15 328 1.7
2020-Jan-28 12:00 328 1.7
2020-Jan-28 11:45 184 2.2
2020-Jan-28 11:30 213 2.2
2020-Jan-28 08:45 260 2.2
2020-Jan-28 08:30 243 2.8
2020-Jan-28 08:15 258 3.3
2020-Jan-28 08:00 244 3.3
2020-Jan-28 07:45 284 3.3
2020-Jan-28 07:30 248 3.3
2020-Jan-28 07:15 251 3.3
2020-Jan-28 07:00 268 3.9
2020-Jan-28 06:45 268 3.9
2020-Jan-28 06:30 343 3.9
2020-Jan-28 06:15 237 3.9
2020-Jan-28 06:00 182 3.9
2020-Jan-28 05:45 257 3.9
2020-Jan-28 05:30 243 4.4
2020-Jan-28 05:15 230 4.4
2020-Jan-28 05:00 217 4.4
2020-Jan-28 04:45 212 4.4
2020-Jan-28 04:30 198 4.4
2020-Jan-28 04:15 243 4.4
2020-Jan-28 04:00 240 4.4
2020-Jan-28 03:45 226 4.4
2020-Jan-28 03:30 213 3.9
2020-Jan-28 03:15 213 3.9
2020-Jan-28 03:00 213 4.4
2020-Jan-28 02:45 213 4.4
2020-Jan-28 02:30 213 4.4
2020-Jan-28 02:15 213 4.4
2020-Jan-28 02:00 213 4.4
2020-Jan-28 01:45 213 4.4
2020-Jan-28 01:30 213 4.4
2020-Jan-28 01:15 213 5.0
2020-Jan-28 01:00 213 5.0
2020-Jan-28 00:45 210 5.0
2020-Jan-28 00:30 210 5.0
2020-Jan-28 00:15 210 5.6
2020-Jan-28 00:00 209 5.6
2020-Jan-27 23:45 212 5.6
2020-Jan-27 23:30 244 5.6
2020-Jan-27 23:15 280 5.6
2020-Jan-27 23:00 247 6.1
2020-Jan-27 22:45 229 6.1
2020-Jan-27 22:30 291 6.1
2020-Jan-27 22:15 237 6.1
2020-Jan-27 22:00 274 6.1
2020-Jan-27 21:45 219 6.1
2020-Jan-27 21:30 208 6.1
2020-Jan-27 21:15 198 0 gusting 6 6.7
2020-Jan-27 21:00 216 6.7
2020-Jan-27 20:45 282 6.7
2020-Jan-27 20:30 246 6.7
2020-Jan-27 20:15 294 6.7
2020-Jan-27 20:00 219 6.7
2020-Jan-27 19:45 203 6.7
2020-Jan-27 19:30 312 6.7
2020-Jan-27 19:15 189 6.7
2020-Jan-27 19:00 227 6.1
2020-Jan-27 18:45 205 6.7
2020-Jan-27 18:30 200 6.7
2020-Jan-27 18:15 309 7.2
2020-Jan-27 18:00 192 1 gusting 4 6.7
2020-Jan-27 17:45 196 6.1
2020-Jan-27 17:30 195 5.6
2020-Jan-27 17:15 184 5.6
2020-Jan-27 17:00 186 1 gusting 2 5.6
2020-Jan-27 16:45 257 5.6
2020-Jan-27 16:30 167 6.1
2020-Jan-27 16:15 202 6.1
2020-Jan-27 16:00 226 6.1
2020-Jan-27 15:45 147 6.1
2020-Jan-27 15:30 205 5.6
2020-Jan-27 15:15 193 5 gusting 5 5.6
2020-Jan-27 15:00 193 5.6
2020-Jan-27 14:45 208 5.0
2020-Jan-27 14:30 205 5.0
2020-Jan-27 14:15 165 4.4
2020-Jan-27 14:00 216 3.9
2020-Jan-27 13:45 224 3.9
2020-Jan-27 13:30 113 3.3
2020-Jan-27 13:15 109 2.8
2020-Jan-27 13:00 103 2.8
2020-Jan-27 12:45 123 2.2
2020-Jan-27 12:30 178 2.2
2020-Jan-27 12:15 178 2.2
2020-Jan-27 12:00 175 1.7
2020-Jan-27 11:45 175 1.7
2020-Jan-27 11:30 176 1.7
2020-Jan-27 11:15 176 1.7
2020-Jan-27 11:00 176 2.2
2020-Jan-27 10:45 179 2.2
2020-Jan-27 10:30 174 2.8
2020-Jan-27 10:15 188 2.2
2020-Jan-27 10:00 251 2.2
2020-Jan-27 09:45 202 1.7
2020-Jan-27 09:30 202 1.7
2020-Jan-27 09:15 200 1.7
2020-Jan-27 09:00 198 1.1
2020-Jan-27 08:45 198 0 gusting 0 1.1
2020-Jan-27 08:30 198 1.1
2020-Jan-27 08:15 198 0.6
2020-Jan-27 08:00 195 0.6
2020-Jan-27 07:45 195 0.6
2020-Jan-27 07:30 202 0.6
2020-Jan-27 07:15 202 0.6
2020-Jan-27 07:00 202 0.6
2020-Jan-27 06:45 202 -0.0
2020-Jan-27 06:30 202 -0.6
2020-Jan-27 06:15 202 -0.6
2020-Jan-27 06:00 206 -0.6
2020-Jan-27 05:45 206 -0.0
2020-Jan-27 05:30 206 -0.0
2020-Jan-27 05:15 206 -0.0
2020-Jan-27 05:01 206 -0.0
2020-Jan-27 04:45 206 -0.0
2020-Jan-27 04:30 206 0.6
2020-Jan-27 04:15 206 0.6
2020-Jan-27 04:00 206 1.1
2020-Jan-27 03:45 206 1.7
2020-Jan-27 03:30 206 1.7
2020-Jan-27 03:15 206 2.2
2020-Jan-27 03:00 206 2.2
2020-Jan-27 02:45 206 2.8
2020-Jan-27 02:30 206 2.8
2020-Jan-27 02:15 219 2.8
2020-Jan-27 02:00 248 2.8
2020-Jan-27 01:45 233 2.8
2020-Jan-27 01:30 239 3.3
2020-Jan-27 01:15 239 3.3
2020-Jan-27 01:00 239 3.9
2020-Jan-27 00:45 240 4.4
2020-Jan-27 00:30 239 5.0
2020-Jan-27 00:15 220 5.0
2020-Jan-27 00:00 223 5.6
2020-Jan-26 23:45 264 6.1
2020-Jan-26 23:30 244 6.1
2020-Jan-26 23:15 213 6.1
2020-Jan-26 23:00 216 6.1
2020-Jan-26 22:45 285 6.1
2020-Jan-26 22:30 205 0 gusting 1 6.7
2020-Jan-26 22:15 274 6.7
2020-Jan-26 22:00 223 6.7